{"data":{"norad_id":62896,"intl_designator":"2025-024T","name":"STARLINK-32890","alt_names":[],"object_type":"PAYLOAD","status":"ACTIVE","operator":null,"country":"US","launch_date":"2025-02-04","launch_site_code":"AFETR","launch_vehicle":null,"mission":null,"orbit_class":"UNKNOWN","rcs_meters":null,"size_class":null,"mass_kg":null,"dimensions":null,"purposes":["comms"],"wikipedia_slug":null,"has_3d_model":false,"image_url":null,"decayed_at":null,"tle_current":{"epoch":"2026-05-25T00:11:56.478048Z","epoch_age_seconds":70438,"freshness":"FRESH","line1":"1 62896U 25024T   26145.00829257  .00020696  00000+0  75929-3 0  9992","line2":"2 62896  42.9996 253.8583 0001020 278.0014  82.0722 15.27589231 73948","mean_motion":15.27589231,"eccentricity":0.000102,"inclination_deg":42.9996,"raan_deg":253.8583,"arg_perigee_deg":278.0014,"mean_anomaly_deg":82.0722,"bstar":0.00075929,"rev_number":7394,"period_min":94.266179073372,"perigee_km":482.32161708157,"apogee_km":483.72129340645,"semimajor_km":6861.158455244,"source":"CELESTRAK","updated_at":"2026-05-25T13:38:19.791951Z"}}}